This is the latest recevied weather packets stored in our database for station/object SP7QPD-1. If no packets are shown the sender has not sent any weather packets the latest 10 day(s).
| Time | Temp. | Humidity | Pressure | Rain* | Wind** | Luminosity | Snow |
|---|---|---|---|---|---|---|---|
| 1777742562 | 20.56° C | 40% | 1018.3 hPa | 0 mm | - | - | - |
| 1777741961 | 20.56° C | 39% | 1018.2 hPa | 0 mm | - | - | - |
| 1777741361 | 21.11° C | 38% | 1018.4 hPa | 0 mm | - | - | - |
| 1777740761 | 21.67° C | 38% | 1018.5 hPa | 0 mm | - | - | - |
| 1777740161 | 22.22° C | 38% | 1018.6 hPa | 0 mm | - | - | - |
| 1777739561 | 22.22° C | 37% | 1018.6 hPa | 0 mm | - | - | - |
| 1777738961 | 22.78° C | 38% | 1018.7 hPa | 0 mm | - | - | - |
| 1777738361 | 23.33° C | 38% | 1018.8 hPa | 0 mm | - | - | - |
| 1777737761 | 23.89° C | 38% | 1019 hPa | 0 mm | - | - | - |
| 1777737161 | 23.89° C | 37% | 1019.1 hPa | 0 mm | - | - | - |
| 1777736561 | 23.89° C | 36% | 1019.1 hPa | 0 mm | - | - | - |
| 1777735960 | 24.44° C | 36% | 1019.3 hPa | 0 mm | - | - | - |
| 1777735360 | 23.89° C | 36% | 1019.5 hPa | 0 mm | - | - | - |
| 1777734760 | 24.44° C | 36% | 1019.6 hPa | 0 mm | - | - | - |
| 1777734160 | 25° C | 36% | 1019.6 hPa | 0 mm | - | - | - |
| 1777733560 | 25° C | 36% | 1019.7 hPa | 0 mm | - | - | - |
| 1777732960 | 24.44° C | 36% | 1019.7 hPa | 0 mm | - | - | - |
| 1777732360 | 23.89° C | 37% | 1019.9 hPa | 0 mm | - | - | - |
| 1777731760 | 24.44° C | 36% | 1020 hPa | 0 mm | - | - | - |
| 1777731160 | 23.89° C | 37% | 1020 hPa | 0 mm | - | - | - |
| 1777730560 | 23.89° C | 36% | 1020.3 hPa | 0 mm | - | - | - |
| 1777729960 | 23.89° C | 37% | 1020.3 hPa | 0 mm | - | - | - |
| 1777729360 | 23.89° C | 37% | 1020.5 hPa | 0 mm | - | - | - |
| 1777728759 | 23.89° C | 37% | 1020.5 hPa | 0 mm | - | - | - |
| 1777728159 | 23.33° C | 37% | 1020.8 hPa | 0 mm | - | - | - |
* Rain latest hour (hover to see other rain measurements)
** Current wind speed in m/s (hover to see current wind gust speed)